Regional Weather Roundup
Issued by NWS Columbia, SC

Home | Current Version | Previous Version | Text Only | Print | Product List | Glossary On
Versions: 1 2 3 4 5 6 7 8 9 10 11 12 13 14 15 16 17 18 19 20 21 22 23 24 25 26 27 28 29 30 31 32 33 34 35 36 37 38 39 40 41 42 43 44 45 46 47 48 49 50
000
ASUS42 KCAE 291010
RWRCAE
REGIONAL WEATHER ROUNDUP
NATIONAL WEATHER SERVICE COLUMBIA SC
500 AM EST SAT NOV 29 2014

NOTE: "FAIR" INDICATES FEW OR NO CLOUDS BELOW 12,000 FEET WITH NO
SIGNIFICANT WEATHER AND/OR OBSTRUCTIONS TO VISIBILITY.

NOT ALL STATIONS ARE QUALITY CONTROLLED BY THE NATIONAL
WEATHER SERVICE. USE DATA WITH CAUTION...ESPECIALLY
DEWPOINT OBSERVATIONS.

SCZ001>056-GAZ040-063>065-077-291100-
...UPSTATE SOUTH CAROLINA...

CITY           SKY/WX    TMP DP  RH WIND       PRES   REMARKS
ANDERSON       CLEAR     28  25  88 CALM      30.27S
LIBERTY        FAIR      25  24  96 MISG      30.24S
SPARTANBURG    FAIR      32  27  80 CALM      30.25S
CLEMSON        CLEAR     32  23  69 CALM      30.26F
GREENVILLE     CLEAR     33  24  69 SW7       30.25F WCI  27
GREENWOOD      CLEAR     32  25  75 SW5       30.29S WCI  27
GREER          CLEAR     33  26  75 S6        30.23F WCI  28
ROCK HILL      MOCLDY    30  25  81 SW3       30.27S
CHESTER        FAIR      34  27  75 CALM      30.28S


...CENTRAL SOUTH CAROLINA...

CITY           SKY/WX    TMP DP  RH WIND       PRES   REMARKS
COLUMBIA APT   CLEAR     29  25  85 CALM      30.30S
COLUMBIA OWENS CLEAR     31  28  89 CALM      30.32S
DARLINGTON     PTCLDY    30  25  80 CALM      30.33R
FLORENCE       PTCLDY    30  27  88 CALM      30.32F
MCENTIRE ANGB  CLEAR     28  26  93 CALM      30.32R
ORANGEBURG     CLEAR     30  27  88 CALM      30.32F
SUMTER SHAW    PTCLDY    31  28  91 CALM      30.30S
NEWBERRY       FAIR      30  28  93 CALM      30.32R
AIKEN          FAIR      28  28 100 CALM      30.33R
BARNWELL         N/A     32  30  93 CALM      30.32S
CAMDEN         FAIR      28  27  93 CALM      30.32S
LANCASTER      FAIR      32  27  80 CALM      30.29S
WINNSBORO      FAIR      32  27  80 CALM      30.29R


...EASTERN AND COASTAL SOUTH CAROLINA...

CITY           SKY/WX    TMP DP  RH WIND       PRES   REMARKS
MYRTLE BEACH   CLEAR     32  27  80 NW3       30.34R
N MYRTLE BCH   CLEAR     30  28  92 CALM      30.33R
CONWAY         FAIR      30  30 100 CALM      30.34S
MARION         FAIR      30  30 100 CALM      30.33F
FLORENCE       PTCLDY    30  27  88 CALM      30.32F
DARLINGTON     PTCLDY    30  25  80 CALM      30.33R
CHARLESTON APT CLEAR     32  30  92 CALM      30.34R
MOUNT PLEASANT FAIR      32  32 100 CALM      30.34R
WALTERBORO     SUNNY     30 N/A N/A CALM      30.34F
BEAUFORT       CLEAR     33  31  92 CALM      30.34R


...EASTERN GEORGIA...

CITY           SKY/WX    TMP DP  RH WIND       PRES   REMARKS
AUGUSTA BUSH F FOG       28  27  96 CALM      30.32S VSB 1/4
AUGUSTA DANIEL CLEAR     34  30  85 CALM      30.30S FOG
THOMSON        CLEAR     31  31 100 CALM      30.34R
WASHINGTON     FAIR      34  32  93 S3        30.28S
SYLVANIA       SUNNY     32  32  99 CALM      30.32F
STATESBORO     CLEAR     31  31 100 CALM      30.31F
SAVANNAH       CLEAR     34  29  82 CALM      30.34R


...SOUTHERN NORTH CAROLINA...

CITY           SKY/WX    TMP DP  RH WIND       PRES   REMARKS
CHARLOTTE      MOCLDY    33  23  66 S3        30.27S
MONROE         MOCLDY    35  22  58 S3        30.27R
WADESBORO      PTSUNNY   29  27  92 CALM      30.30R
ROCKINGHAM     MOSUNNY   32  25  74 CALM      30.30S
RUTHERFORDTON  PTCLDY    28  25  87 CALM      30.24F
ASHEVILLE      PTCLDY    28  24  85 CALM      30.20S

$$


USA.gov is the U.S. government's official web portal to all federal, state and local government web resources and services.